Tillamook, OR

2:06 AM PST on February 06, 2016 (GMT -0800)
Tillamook

Weather History for KTMK - December, 2012

Change the Weather History Date:

Thursday, December 6, 2012

  Actual Average (KMMV) Record (KMMV)
Temperature  
Mean Temperature 44 °F 41 °F  
Max Temperature 51 °F 46 °F 63 °F (1921)
Min Temperature 37 °F 35 °F 18 °F (1972)
Degree Days  
Heating Degree Days 21 24  
Month to date heating degree days 142  
Since 1 July heating degree days 1364  
Cooling Degree Days 0 0  
Month to date cooling degree days 0  
Year to date cooling degree days 215  
Moisture  
Dew Point 43 °F    
Average Humidity 92    
Maximum Humidity 100    
Minimum Humidity 76    
Precipitation  
Precipitation 0.09 in 0.19 in 2.00 in (1923)
Month to date precipitation 1.15  
Year to date precipitation 34.80  
Sea Level Pressure  
Sea Level Pressure 30.21 in    
Wind  
Wind Speed 4 mph (South)    
Max Wind Speed 10 mph    
Max Gust Speed 20 mph    
Visibility 9 miles    
Events Rain    
T = Trace of Precipitation, MM = Missing Value Source: NWS Daily Summary

Daily Weather History Graph

Daily Weather History Graph

Search for Another Location

Airport or City:

Trip Planner

Search our weather history database for the weather conditions in past years. The results will help you decide how hot, cold, wet, or windy it might be!

Date:

Astronomy

Dec. 06, 2012 Rise Set
Actual Time 8:40 AM MST 5:32 PM MST
Civil Twilight 8:06 AM MST 6:06 PM MST
Nautical Twilight 7:29 AM MST 6:43 PM MST
Astronomical Twilight 6:53 AM MST 7:19 PM MST
Moon 12:43 AM MST 1:19 PM MST
Length of Visible Light 9h 59m
Length of Day
8h 51m
Waning Gibbous, 48% of the Moon is Illuminated
Dec 6
Waning Gibbous
Dec 13
New
Dec 19
First Quarter
Dec 28
Full
Jan 4
Last Quarter

Hourly Weather History & Observations

Time (MST) Temp. Windchill Dew Point Humidity Pressure Visibility Wind Dir Wind Speed Gust Speed Precip Events Conditions
12:15 AM 39.2 °F 37.0 °F 39.2 °F 100% 30.24 in 10.0 mi ESE 3.5 mph - N/A   Scattered Clouds
12:35 AM 39.2 °F - 39.2 °F 100% 30.24 in 10.0 mi Calm Calm - N/A   Scattered Clouds
12:55 AM 37.4 °F - 37.4 °F 100% 30.25 in 7.0 mi Calm Calm - N/A   Mostly Cloudy
1:15 AM 37.4 °F - 37.4 °F 100% 30.26 in 5.0 mi Calm Calm - N/A   Mostly Cloudy
1:35 AM 37.4 °F 34.9 °F 37.4 °F 100% 30.26 in 7.0 mi ESE 3.5 mph - N/A   Scattered Clouds
1:55 AM 37.4 °F 34.9 °F 37.4 °F 100% 30.24 in 10.0 mi SE 3.5 mph - N/A   Scattered Clouds
2:15 AM 37.4 °F 34.9 °F 37.4 °F 100% 30.24 in 7.0 mi SE 3.5 mph - N/A   Mostly Cloudy
2:35 AM 37.4 °F - 37.4 °F 100% 30.24 in 7.0 mi Calm Calm - N/A   Overcast
2:55 AM 39.2 °F 37.0 °F 39.2 °F 100% 30.24 in 10.0 mi East 3.5 mph - N/A   Mostly Cloudy
3:15 AM 39.2 °F - 39.2 °F 100% 30.25 in 10.0 mi Calm Calm - N/A   Overcast
6:35 AM 41.0 °F 39.0 °F 41.0 °F 100% 30.21 in 10.0 mi East 3.5 mph - N/A   Mostly Cloudy
6:55 AM 42.8 °F - 42.8 °F 100% 30.21 in 7.0 mi Calm Calm - 0.01 in   Overcast
7:15 AM 42.8 °F 41.1 °F 41.0 °F 93% 30.21 in 10.0 mi WNW 3.5 mph - N/A   Overcast
7:35 AM 42.8 °F - 41.0 °F 93% 30.22 in 10.0 mi Calm Calm - N/A   Overcast
7:55 AM 41.0 °F - 41.0 °F 100% 30.21 in 10.0 mi Calm Calm - N/A   Mostly Cloudy
8:15 AM 42.8 °F - 41.0 °F 93% 30.21 in 10.0 mi Calm Calm - N/A   Mostly Cloudy
8:35 AM 42.8 °F 40.1 °F 42.8 °F 100% 30.21 in 5.0 mi South 4.6 mph - 0.01 in Rain Light Rain
8:55 AM 42.8 °F 41.1 °F 42.8 °F 100% 30.22 in 10.0 mi NNE 3.5 mph - 0.01 in   Scattered Clouds
9:15 AM 42.8 °F - 42.8 °F 100% 30.22 in 10.0 mi Calm Calm - N/A   Mostly Cloudy
9:35 AM 44.6 °F 40.2 °F 44.6 °F 100% 30.21 in 10.0 mi South 8.1 mph - N/A Rain Light Rain
9:55 AM 44.6 °F 39.7 °F 42.8 °F 93% 30.21 in 10.0 mi South 9.2 mph - N/A   Overcast
10:15 AM 46.4 °F 41.5 °F 42.8 °F 87% 30.21 in 10.0 mi South 10.4 mph - N/A   Overcast
10:55 AM 46.4 °F 42.4 °F 44.6 °F 93% 30.22 in 10.0 mi South 8.1 mph - 0.01 in   Overcast
11:15 AM 46.4 °F 41.9 °F 44.6 °F 93% 30.22 in 10.0 mi SSE 9.2 mph - N/A   Overcast
11:35 AM 48.2 °F - 44.6 °F 87% 30.22 in 4.0 mi SSE 9.2 mph - N/A   Drizzle
11:55 AM 48.2 °F - 46.4 °F 93% 30.22 in 7.0 mi SSE 8.1 mph - N/A   Overcast
12:15 PM 48.2 °F - 44.6 °F 87% 30.21 in 10.0 mi SSE 6.9 mph - N/A   Overcast
12:35 PM 48.2 °F - 46.4 °F 93% 30.21 in 10.0 mi South 9.2 mph - N/A   Overcast
12:55 PM 50.0 °F - 46.4 °F 87% 30.20 in 10.0 mi SSE 6.9 mph - N/A   Overcast
1:15 PM 50.0 °F - 46.4 °F 87% 30.20 in 10.0 mi South 6.9 mph - N/A   Overcast
1:35 PM 50.0 °F - 46.4 °F 87% 30.19 in 10.0 mi SSE 5.8 mph - N/A   Overcast
1:55 PM 50.0 °F - 46.4 °F 87% 30.19 in 10.0 mi SSE 6.9 mph - N/A   Overcast
2:15 PM 50.0 °F - 46.4 °F 87% 30.19 in 10.0 mi South 5.8 mph - N/A   Overcast
2:35 PM 50.0 °F - 44.6 °F 82% 30.19 in 10.0 mi SW 6.9 mph - N/A   Overcast
2:55 PM 51.8 °F - 44.6 °F 76% 30.19 in 10.0 mi SSW 5.8 mph - N/A   Overcast
3:15 PM 51.8 °F - 44.6 °F 76% 30.19 in 10.0 mi SSW 6.9 mph - N/A   Overcast
3:35 PM 51.8 °F - 44.6 °F 76% 30.19 in 7.0 mi SSW 8.1 mph - N/A Rain Rain
3:55 PM 50.0 °F - 44.6 °F 82% 30.18 in 10.0 mi SW 8.1 mph - N/A   Overcast
4:15 PM 50.0 °F - 44.6 °F 82% 30.18 in 10.0 mi SW 8.1 mph - N/A   Drizzle
4:35 PM 50.0 °F - 46.4 °F 87% 30.18 in 7.0 mi SW 9.2 mph - 0.01 in Rain Light Rain
4:55 PM 50.0 °F - 46.4 °F 87% 30.19 in 10.0 mi SW 6.9 mph - 0.01 in Rain Light Rain
5:15 PM 50.0 °F - 46.4 °F 87% 30.19 in 10.0 mi SSW 5.8 mph - N/A   Overcast
5:35 PM 50.0 °F - 46.4 °F 87% 30.18 in 10.0 mi South 5.8 mph - N/A   Overcast
5:55 PM 50.0 °F - 44.6 °F 82% 30.18 in 10.0 mi SSW 6.9 mph - N/A   Overcast
6:15 PM 50.0 °F - 44.6 °F 82% 30.18 in 10.0 mi SSW 5.8 mph - N/A   Overcast
6:35 PM 50.0 °F - 44.6 °F 82% 30.19 in 10.0 mi WSW 10.4 mph - N/A   Drizzle
6:55 PM 48.2 °F - 44.6 °F 87% 30.19 in 10.0 mi SSW 3.5 mph - N/A   Overcast
7:35 PM 48.2 °F - 46.4 °F 93% 30.18 in 10.0 mi SSE 5.8 mph - N/A   Overcast
7:55 PM 48.2 °F - 46.4 °F 93% 30.20 in 5.0 mi West 8.1 mph 19.6 mph 0.03 in Rain Light Rain
8:15 PM 48.2 °F - 44.6 °F 87% 30.20 in 10.0 mi Calm Calm - 0.01 in Rain Light Rain
8:35 PM 46.4 °F 45.2 °F 44.6 °F 93% 30.20 in 10.0 mi SE 3.5 mph - 0.01 in   Mostly Cloudy
8:55 PM 46.4 °F 44.3 °F 44.6 °F 93% 30.19 in 10.0 mi SSE 4.6 mph - 0.01 in   Overcast
9:15 PM 46.4 °F 44.3 °F 44.6 °F 93% 30.20 in 10.0 mi South 4.6 mph - N/A   Scattered Clouds
9:35 PM 46.4 °F 43.5 °F 44.6 °F 93% 30.20 in 10.0 mi South 5.8 mph - N/A   Mostly Cloudy
9:55 PM 46.4 °F 42.9 °F 44.6 °F 93% 30.20 in 10.0 mi South 6.9 mph - N/A   Overcast
10:15 PM 46.4 °F 44.3 °F 44.6 °F 93% 30.21 in 7.0 mi South 4.6 mph - 0.01 in Rain Light Rain
10:35 PM 46.4 °F 45.2 °F 44.6 °F 93% 30.21 in 10.0 mi NW 3.5 mph - 0.01 in   Overcast
10:55 PM 46.4 °F - 44.6 °F 93% 30.21 in 10.0 mi Calm Calm - 0.01 in   Overcast
11:15 PM 46.4 °F 43.5 °F 44.6 °F 93% 30.20 in 10.0 mi SE 5.8 mph - N/A   Mostly Cloudy
11:35 PM 46.4 °F 45.2 °F 44.6 °F 93% 30.21 in 10.0 mi SSW 3.5 mph - N/A   Mostly Cloudy
11:55 PM 46.4 °F 44.3 °F 44.6 °F 93% 30.20 in 10.0 mi SSE 4.6 mph - N/A   Mostly Cloudy